Location: ?????????
(54.7630°N, 39.4991°E)
Time: 22:31:38
(UTC+00:00)

Meteor 1-11 - Pass Details

Date: 14 April 2026
Orbit: 825 x 899 km, 81.2° (Epoch: 13 May)

Event Time Altitude Azimuth Distance (km) Brightness Sun altitude
Rises 17:56:46 0° 345° (NNW) 3,413 8.3 -12.6°
Reaches altitude 10° 17:59:13 10° 346° (NNW) 2,465 7.4 -12.9°
Maximum altitude 18:04:48 86° 77° (ENE) 840 4.1 -13.5°
Enters shadow 18:09:35 14° 166° (SSE) 2,149 5.8 -14.1°
